Location: Alpine
(43.1636°N, 111.0180°W)
Time: 00:37:29
(UTC+00:00)

N. Korean satellite - Visible Passes

Search period start: 27 January 2022 00:00
Search period end: 06 February 2022 00:00
Orbit: 447 x 490 km, 97.3° (Epoch: 26 January)

Date Brightness Start Highest point End Pass type
(mag) Time Alt. Az. Time Alt. Az. Time Alt. Az.
27 Jan 9.8 11:37:08 10° ENE 11:38:57 13° E 11:39:00 13° E visible
27 Jan 6.9 13:08:51 10° N 13:12:17 40° WNW 13:13:04 35° WSW visible
28 Jan 6.5 12:39:28 10° NNE 12:43:07 83° ESE 12:44:00 50° S visible
29 Jan 8.2 12:10:29 10° NNE 12:13:49 33° E 12:14:58 27° SE visible
29 Jan 8.1 13:44:20 10° NNW 13:46:40 16° WNW 13:49:00 10° WSW visible
30 Jan 9.6 11:42:10 10° NE 11:44:23 15° E 11:45:59 12° ESE visible
30 Jan 7.1 13:14:18 10° N 13:17:38 34° WNW 13:20:03 16° SW visible
31 Jan 6.4 12:44:48 10° N 12:48:27 84° WNW 12:51:10 17° SSW visible
01 Feb 7.9 12:15:41 10° NNE 12:19:07 39° E 12:22:31 10° SSE visible
01 Feb 8.3 13:49:53 10° NNW 13:51:54 14° WNW 13:53:55 10° W visible
02 Feb 9.4 11:47:09 10° NE 11:49:40 18° E 11:52:08 10° SE visible
02 Feb 7.3 13:19:38 10° N 13:22:51 30° WNW 13:26:00 10° SW visible
03 Feb 6.4 12:50:01 10° N 12:53:38 71° WNW 12:57:11 10° SSW visible
04 Feb 7.6 12:20:47 10° NNE 12:24:17 46° E 12:27:43 10° S visible
04 Feb 8.4 13:55:22 10° NW 13:56:59 13° WNW 13:58:35 10° W visible
05 Feb 9.2 11:52:03 10° NE 11:54:47 20° E 11:57:29 10° SE visible
05 Feb 7.5 13:24:51 10° NNW 13:27:53 26° WNW 13:30:55 10° SW visible
